SO5BO-13 Weather Reports


time (UTC)temp
F
wind
direction
speed
knots
gust
knots
rain 1hr
in
rain 24hr
in
rain mn
in
humidity
%
barometer
mb
20260905223241 57 318 3.5 11.3 0.00 0.00 0.00 84 1016.5
20260905222742 57 325 6.1 11.3 0.00 0.00 0.00 84 1016.2
20260905222242 57 243 3.5 7.8 0.00 0.00 0.00 84 1016.1
20260905221742 57 262 9.6 14.8 0.00 0.00 0.00 84 1016.1
20260905221242 57 271 5.2 13.0 0.00 0.00 0.00 84 1016.1
20260905220742 57 275 2.6 11.3 0.00 0.00 0.00 84 1016.2
20260905220242 57 247 4.3 12.2 0.00 0.00 0.00 84 1016.0
20260905215742 57 267 5.2 12.2 0.00 0.00 0.00 83 1016.2
20260905215242 57 277 5.2 9.6 0.00 0.00 0.00 83 1016.1
20260905214742 57 279 2.6 7.0 0.00 0.00 0.00 83 1016.1
20260905214242 57 277 7.8 11.3 0.00 0.00 0.00 83 1016.1
20260905213742 57 270 3.5 8.7 0.00 0.00 0.00 82 1016.0
20260905213242 57 274 5.2 9.6 0.00 0.00 0.00 82 1016.1
20260905212742 58 274 8.7 13.0 0.00 0.00 0.00 82 1016.1
20260905212242 58 287 6.1 12.2 0.00 0.00 0.00 81 1015.9
20260905211742 58 273 7.8 13.0 0.00 0.00 0.00 81 1015.9
20260905211242 58 207 5.2 9.6 0.00 0.00 0.00 81 1015.9
20260905210742 58 258 7.0 12.2 0.00 0.00 0.00 80 1015.9
20260905210242 58 290 7.8 9.6 0.00 0.00 0.00 80 1015.7
20260905205742 59 242 7.0 9.6 0.00 0.00 0.00 80 1015.8
20260905205242 59 246 6.1 8.7 0.00 0.00 0.00 79 1015.7
20260905204742 59 289 5.2 15.6 0.00 0.00 0.00 79 1015.7
20260905204242 59 268 5.2 12.2 0.00 0.00 0.00 79 1015.7
20260905203742 59 298 6.1 8.7 0.00 0.00 0.00 79 1015.5
20260905203241 60 277 7.8 9.6 0.00 0.00 0.00 78 1015.4
20260905202741 60 276 9.6 15.6 0.00 0.00 0.00 78 1015.4
20260905202242 60 270 7.0 11.3 0.00 0.00 0.00 78 1015.3
20260905201742 60 287 8.7 11.3 0.00 0.00 0.00 78 1015.3
20260905201242 60 287 8.7 11.3 0.00 0.00 0.00 78 1015.2
20260905200742 60 292 7.8 12.2 0.00 0.00 0.00 78 1015.3
20260905200242 60 288 7.8 9.6 0.00 0.00 0.00 78 1015.1
20260905195742 60 274 11.3 14.8 0.00 0.00 0.00 77 1015.3
20260905195242 60 273 4.3 8.7 0.00 0.00 0.00 77 1015.4
20260905194742 60 311 4.3 11.3 0.00 0.00 0.00 77 1015.2
20260905194242 60 294 9.6 14.8 0.00 0.00 0.00 77 1015.2
20260905193742 60 274 5.2 7.8 0.00 0.00 0.00 77 1015.2
20260905193242 60 255 5.2 12.2 0.00 0.00 0.00 77 1015.1
20260905192742 60 326 7.8 12.2 0.00 0.00 0.00 77 1015.3
20260905192242 60 279 6.1 11.3 0.00 0.00 0.00 77 1015.2
20260905191742 60 284 2.6 8.7 0.00 0.00 0.00 77 1015.1
20260905191242 60 282 7.0 9.6 0.00 0.00 0.00 77 1015.2
20260905190742 60 274 4.3 7.0 0.00 0.00 0.00 77 1015.1
20260905190242 60 283 1.7 14.8 0.00 0.00 0.00 78 1015.3
20260905185742 59 243 3.5 6.1 0.00 0.00 0.00 78 1015.1
20260905185242 59 143 1.7 6.1 0.00 0.00 0.00 78 1015.1
20260905184742 59 283 1.7 2.6 0.00 0.00 0.00 79 1015.0
20260905184242 60 323 2.6 5.2 0.00 0.00 0.00 79 1015.2
20260905183742 60 250 1.7 5.2 0.00 0.00 0.00 79 1015.1
20260905183242 60 268 2.6 3.5 0.00 0.00 0.00 79 1015.2
20260905182742 60 220 1.7 2.6 0.00 0.00 0.00 78 1015.3
20260905182242 60 253 0.9 3.5 0.00 0.00 0.00 78 1015.5
20260905181742 60 299 1.7 3.5 0.00 0.00 0.00 78 1015.5
20260905181242 60 276 4.3 7.8 0.00 0.00 0.00 77 1015.4
20260905180742 60 285 0.9 1.7 0.00 0.00 0.00 77 1015.3
20260905180242 60 229 1.7 2.6 0.00 0.00 0.00 76 1015.3
20260905175742 60 218 3.5 6.1 0.00 0.00 0.00 76 1015.5
20260905175242 60 211 0.9 2.6 0.00 0.00 0.00 75 1015.2
20260905174742 61 290 0.0 1.7 0.00 0.00 0.00 75 1015.2
20260905174242 61 272 0.9 1.7 0.00 0.00 0.00 74 1015.3
20260905173742 61 212 1.7 5.2 0.00 0.00 0.00 74 1015.3
20260905173242 61 251 1.7 5.2 0.00 0.00 0.00 74 1015.0
20260905172742 61 287 2.6 7.0 0.00 0.00 0.00 73 1015.1
20260905172242 61 281 2.6 5.2 0.00 0.00 0.00 73 1015.1
20260905171742 61 236 3.5 5.2 0.00 0.00 0.00 73 1015.0
20260905171242 61 313 2.6 5.2 0.00 0.00 0.00 72 1014.8
20260905170742 61 243 0.9 5.2 0.00 0.00 0.00 72 1014.9
20260905170242 62 309 4.3 7.0 0.00 0.00 0.00 72 1014.9
20260905165742 62 299 5.2 7.0 0.00 0.00 0.00 71 1015.1
20260905165243 62 276 2.6 8.7 0.00 0.00 0.00 71 1015.2
20260905164742 62 301 2.6 7.0 0.00 0.00 0.00 71 1015.0
20260905164242 62 283 0.9 6.1 0.00 0.00 0.00 71 1015.1
20260905163742 62 320 0.9 2.6 0.00 0.00 0.00 71 1014.9
20260905163242 62 218 1.7 7.8 0.00 0.00 0.00 70 1014.9
20260905162742 62 234 3.5 6.1 0.00 0.00 0.00 70 1014.8
20260905162242 62 288 5.2 7.8 0.00 0.00 0.00 70 1014.9
20260905161742 62 206 2.6 6.1 0.00 0.00 0.00 70 1014.8
20260905161242 62 294 5.2 7.8 0.00 0.00 0.00 70 1014.7
20260905160742 62 307 4.3 8.7 0.00 0.00 0.00 70 1014.7
20260905160242 62 276 7.0 8.7 0.00 0.00 0.00 70 1014.6
20260905155742 62 252 3.5 7.0 0.00 0.00 0.00 70 1014.6
20260905155242 62 264 2.6 5.2 0.00 0.00 0.00 71 1014.6
20260905154742 62 283 6.1 11.3 0.00 0.00 0.00 71 1014.7
20260905154242 62 288 4.3 7.0 0.00 0.00 0.00 70 1014.7
20260905153742 62 287 6.1 9.6 0.00 0.00 0.00 70 1014.6
20260905153242 62 287 2.6 7.8 0.00 0.00 0.00 69 1014.7
20260905152742 62 291 4.3 7.0 0.00 0.00 0.00 68 1014.8
20260905152242 63 288 3.5 12.2 0.00 0.00 0.00 68 1014.8
20260905151742 63 252 2.6 15.6 0.00 0.00 0.00 67 1014.9
20260905151242 64 275 8.7 13.9 0.00 0.00 0.00 67 1014.8
20260905150742 64 296 6.1 14.8 0.00 0.00 0.00 67 1014.9
20260905150242 64 270 9.6 13.9 0.00 0.00 0.00 67 1014.8
20260905145742 64 292 7.8 16.5 0.00 0.00 0.00 66 1014.8
20260905145242 65 253 10.4 18.2 0.00 0.00 0.00 65 1014.9
20260905144742 66 254 3.5 18.2 0.00 0.00 0.00 62 1014.8
20260905144242 67 267 6.1 16.5 0.00 0.00 0.00 60 1014.5
20260905143742 67 281 7.8 11.3 0.00 0.00 0.00 58 1014.3
20260905143242 68 296 3.5 11.3 0.00 0.00 0.00 58 1014.1
20260905142742 68 276 7.0 14.8 0.00 0.00 0.00 57 1014.2
20260905142242 68 292 10.4 16.5 0.00 0.00 0.00 57 1014.1
20260905141742 69 261 6.1 13.0 0.00 0.00 0.00 56 1013.9
20260905141242 69 270 16.5 21.7 0.00 0.00 0.00 56 1013.9
20260905140742 69 296 5.2 12.2 0.00 0.00 0.00 56 1014.0
20260905140242 70 280 7.0 14.8 0.00 0.00 0.00 56 1013.9
20260905135742 69 283 4.3 13.9 0.00 0.00 0.00 56 1013.7
20260905135242 69 304 9.6 16.5 0.00 0.00 0.00 56 1013.9
20260905134742 70 238 3.5 12.2 0.00 0.00 0.00 55 1013.7
20260905134242 70 241 7.8 14.8 0.00 0.00 0.00 56 1013.9
20260905133742 70 295 12.2 16.5 0.00 0.00 0.00 56 1013.8
20260905133242 70 271 11.3 18.2 0.00 0.00 0.00 56 1013.7
20260905132742 70 219 7.8 16.5 0.00 0.00 0.00 56 1013.8
20260905132242 70 224 8.7 20.9 0.00 0.00 0.00 57 1013.7
20260905131742 70 268 8.7 13.9 0.00 0.00 0.00 58 1013.8
20260905131242 70 273 9.6 18.2 0.00 0.00 0.00 58 1013.9
20260905130742 70 287 9.6 23.5 0.00 0.00 0.00 58 1013.9
20260905130242 70 264 7.0 9.6 0.00 0.00 0.00 58 1013.7
20260905125742 70 295 11.3 14.8 0.00 0.00 0.00 58 1013.6
20260905125242 70 265 8.7 13.0 0.00 0.00 0.00 58 1013.9
20260905124742 70 267 10.4 13.9 0.00 0.00 0.00 58 1013.7
20260905124242 70 263 7.8 14.8 0.00 0.00 0.00 58 1013.8
20260905123742 70 306 3.5 14.8 0.00 0.00 0.00 58 1013.6
20260905123242 70 249 7.8 16.5 0.00 0.00 0.00 58 1013.8
20260905122742 70 278 7.0 16.5 0.00 0.00 0.00 57 1013.9
20260905122242 71 326 4.3 15.6 0.00 0.00 0.00 57 1013.8
20260905121742 71 246 11.3 14.8 0.00 0.00 0.00 57 1013.7
20260905121242 71 308 7.8 20.0 0.00 0.00 0.00 57 1013.7
20260905120742 71 271 5.2 9.6 0.00 0.00 0.00 58 1013.7
20260905120242 71 264 7.8 20.9 0.00 0.00 0.00 58 1013.8
20260905115742 70 268 7.8 13.9 0.00 0.00 0.00 59 1013.5
20260905115242 70 279 8.7 16.5 0.00 0.00 0.00 60 1013.8
20260905114742 70 262 9.6 13.0 0.00 0.00 0.00 61 1013.6
20260905114242 69 303 8.7 15.6 0.00 0.00 0.00 62 1013.6
20260905113742 69 278 9.6 13.0 0.00 0.00 0.00 63 1013.8
20260905113242 69 259 8.7 12.2 0.00 0.00 0.00 63 1013.7
20260905112742 68 269 10.4 13.9 0.00 0.00 0.00 64 1013.6
20260905112242 68 265 6.1 19.1 0.00 0.00 0.00 64 1013.7
20260905111742 67 258 8.7 16.5 0.00 0.00 0.00 63 1013.8
20260905111242 68 282 5.2 12.2 0.00 0.00 0.00 63 1013.6
20260905110741 68 289 7.8 13.0 0.00 0.00 0.00 63 1013.5
20260905110241 69 270 9.6 15.6 0.00 0.00 0.00 63 1013.6
20260905105742 69 290 10.4 16.5 0.00 0.00 0.00 64 1013.6
20260905105242 68 272 10.4 16.5 0.00 0.00 0.00 65 1013.6
20260905104742 67 265 6.1 20.0 0.00 0.00 0.00 65 1013.5
20260905104242 67 320 2.6 13.0 0.00 0.00 0.00 68 1013.4
20260905103742 66 272 11.3 16.5 0.00 0.00 0.00 68 1013.5
20260905103242 66 252 5.2 14.8 0.00 0.00 0.00 67 1013.5
20260905102742 66 283 5.2 13.0 0.00 0.00 0.00 66 1013.4
20260905102242 67 259 3.5 11.3 0.00 0.00 0.00 66 1013.4
20260905101742 67 290 7.0 15.6 0.00 0.00 0.00 65 1013.3
20260905101242 68 261 11.3 14.8 0.00 0.00 0.00 64 1013.0
20260905100742 68 254 5.2 15.6 0.00 0.00 0.00 64 1013.0
20260905100242 69 283 7.0 13.0 0.00 0.00 0.00 64 1013.2
20260905095742 69 274 12.2 13.9 0.00 0.00 0.00 63 1013.1
20260905095241 70 253 7.0 20.9 0.00 0.00 0.00 64 1013.0
20260905094742 70 290 8.7 13.9 0.00 0.00 0.00 65 1013.0
20260905094242 69 319 10.4 16.5 0.00 0.00 0.00 65 1012.9
20260905093742 69 283 12.2 20.0 0.00 0.00 0.00 67 1013.1
20260905093242 68 261 9.6 19.1 0.00 0.00 0.00 67 1012.9
20260905092742 68 286 13.0 15.6 0.00 0.00 0.00 68 1013.0
20260905092242 68 289 9.6 16.5 0.00 0.00 0.00 66 1013.1
20260905091742 69 270 8.7 20.0 0.00 0.00 0.00 66 1012.9
20260905091242 69 283 4.3 19.1 0.00 0.00 0.00 66 1012.8
20260905090742 69 289 13.9 18.2 0.00 0.00 0.00 67 1012.8
20260905090242 69 288 7.0 16.5 0.00 0.00 0.00 67 1012.6
20260905085742 69 291 5.2 26.1 0.00 0.00 0.00 68 1012.7
20260905085242 68 291 5.2 18.2 0.00 0.00 0.00 70 1012.7
20260905084742 67 253 6.1 13.0 0.00 0.00 0.00 71 1012.7
20260905084243 67 273 8.7 18.2 0.00 0.00 0.00 71 1012.7
20260905083742 67 267 13.0 18.2 0.00 0.00 0.00 71 1012.5
20260905083242 67 298 10.4 20.9 0.00 0.00 0.00 71 1012.6
20260905082742 67 249 9.6 23.5 0.00 0.00 0.00 73 1012.6
20260905082242 66 281 5.2 15.6 0.00 0.00 0.00 75 1012.6
20260905081742 66 291 8.7 15.6 0.00 0.00 0.00 75 1012.5
20260905081242 66 277 13.0 18.2 0.00 0.00 0.00 76 1012.7
20260905080742 65 255 8.7 18.2 0.00 0.00 0.00 77 1012.5
20260905080242 65 287 8.7 15.6 0.00 0.00 0.00 76 1012.4
20260905075742 65 260 10.4 21.7 0.00 0.00 0.00 76 1012.5
20260905075242 65 312 11.3 22.6 0.00 0.00 0.00 76 1012.5
20260905074742 65 321 3.5 12.2 0.00 0.00 0.00 77 1012.5
20260905074242 66 305 9.6 15.6 0.00 0.00 0.00 77 1012.3
20260905073742 65 296 18.2 21.7 0.00 0.00 0.00 78 1012.4
20260905073242 65 259 8.7 14.8 0.00 0.00 0.00 79 1012.1
20260905072742 65 112 10.4 19.1 0.00 0.00 0.00 81 1012.4
20260905072242 64 285 9.6 13.0 0.00 0.00 0.00 81 1012.2
20260905071742 64 322 8.7 14.8 0.00 0.00 0.00 83 1012.2
20260905071242 64 275 7.0 15.6 0.00 0.00 0.00 86 1012.1
20260905070742 63 279 3.5 13.9 0.00 0.00 0.00 86 1011.9
20260905070242 63 300 12.2 18.2 0.00 0.00 0.00 87 1011.8
20260905065742 64 293 7.8 11.3 0.00 0.00 0.00 87 1011.8
20260905065242 63 271 9.6 18.2 0.00 0.00 0.00 87 1011.8
20260905064742 63 296 9.6 20.0 0.00 0.00 0.00 87 1011.6
20260905064242 63 275 6.1 15.6 0.00 0.00 0.00 87 1011.5
20260905063742 63 271 9.6 19.1 0.00 0.00 0.00 87 1011.4
20260905063242 63 292 5.2 13.0 0.00 0.00 0.00 88 1011.3
20260905062742 63 304 9.6 15.6 0.00 0.00 0.00 88 1011.4
20260905062242 62 286 2.6 7.8 0.00 0.00 0.00 89 1011.3
20260905061742 62 261 3.5 12.2 0.00 0.00 0.00 89 1011.3
20260905061242 62 281 7.8 11.3 0.00 0.00 0.00 89 1011.3
20260905060742 62 272 7.8 8.7 0.00 0.00 0.00 89 1011.2
20260905060242 61 295 6.1 11.3 0.00 0.00 0.00 90 1011.2
20260905055742 61 257 7.0 12.2 0.00 0.00 0.00 90 1011.3
20260905055242 61 279 3.5 15.6 0.00 0.00 0.00 89 1011.1
20260905054742 61 261 7.0 15.6 0.00 0.00 0.00 90 1011.0
20260905054242 61 279 3.5 9.6 0.00 0.00 0.00 90 1011.0
20260905053742 61 259 6.1 8.7 0.00 0.00 0.00 90 1011.0
20260905053242 60 255 4.3 9.6 0.00 0.00 0.00 90 1011.0
20260905052742 60 271 5.2 11.3 0.00 0.00 0.00 90 1010.8
20260905052242 60 296 6.1 9.6 0.00 0.00 0.00 89 1010.9
20260905051742 60 278 9.6 11.3 0.00 0.00 0.00 89 1010.9
20260905051242 60 292 3.5 13.9 0.00 0.00 0.00 89 1010.9
20260905050742 60 269 2.6 11.3 0.00 0.00 0.00 89 1010.8
20260905050242 60 290 6.1 11.3 0.00 0.00 0.00 89 1010.7
20260905045742 60 269 6.1 8.7 0.00 0.00 0.00 89 1010.6
20260905045242 60 287 7.8 13.0 0.00 0.00 0.00 89 1010.5
20260905044742 60 279 6.1 12.2 0.00 0.00 0.00 89 1010.4
20260905044242 60 273 9.6 13.0 0.00 0.00 0.00 89 1010.4
20260905043742 60 282 7.0 11.3 0.00 0.00 0.00 89 1010.1
20260905043242 60 229 7.8 11.3 0.00 0.00 0.00 89 1010.4
20260905042742 60 259 4.3 11.3 0.00 0.00 0.00 89 1010.4
20260905042242 60 257 7.0 12.2 0.00 0.00 0.00 89 1010.2
20260905041742 61 281 5.2 13.9 0.00 0.00 0.00 89 1010.0
20260905041242 61 278 10.4 13.9 0.00 0.00 0.00 89 1009.9
20260905040742 61 318 9.6 13.0 0.00 0.00 0.00 89 1009.7
20260905040242 62 276 11.3 20.0 0.00 0.00 0.00 89 1009.6
20260905035742 62 262 8.7 26.1 0.00 0.00 0.00 90 1009.6
20260905035242 62 268 10.4 15.6 0.00 0.00 0.00 91 1009.4
20260905034742 62 273 10.4 15.6 0.00 0.00 0.00 91 1009.2
20260905034242 62 277 8.7 13.9 0.00 0.00 0.00 91 1009.2
20260905033742 62 271 7.8 11.3 0.00 0.00 0.00 92 1008.8
20260905033242 62 248 4.3 15.6 0.00 0.00 0.00 92 1009.0
20260905032742 62 290 12.2 15.6 0.00 0.00 0.00 92 1008.7
20260905032242 62 274 6.1 13.9 0.00 0.00 0.00 92 1008.6
20260905031742 62 268 10.4 13.9 0.00 0.00 0.00 92 1008.8
20260905031242 62 253 7.0 20.0 0.00 0.00 0.00 92 1008.4
20260905030742 62 278 9.6 16.5 0.00 0.00 0.00 92 1008.3
20260905030242 62 294 8.7 13.9 0.00 0.00 0.00 92 1008.3
20260905025742 62 248 7.8 18.2 0.00 0.00 0.00 92 1008.6
20260905025242 62 263 7.8 14.8 0.00 0.00 0.00 92 1008.5
20260905024742 62 250 7.8 15.6 0.00 0.00 0.00 92 1008.3
20260905024242 62 285 5.2 16.5 0.00 0.00 0.00 93 1008.6
20260905023742 62 286 5.2 9.6 0.00 0.00 0.00 92 1008.2
20260905023242 62 269 7.8 12.2 0.00 0.00 0.00 93 1008.2
20260905022742 63 260 10.4 13.0 0.00 0.00 0.00 92 1008.4
20260905022242 63 279 6.1 9.6 0.00 0.00 0.00 92 1008.3
20260905021742 63 261 8.7 12.2 0.00 0.00 0.00 92 1008.5
20260905021242 63 260 5.2 13.0 0.00 0.00 0.00 92 1008.1
20260905020742 63 276 8.7 16.5 0.00 0.00 0.00 92 1008.1
20260905020242 63 297 4.3 8.7 0.00 0.00 0.00 92 1008.0
20260905015742 63 285 6.1 11.3 0.00 0.00 0.00 92 1008.1
20260905015242 63 296 7.8 16.5 0.00 0.00 0.00 92 1008.0
20260905014742 63 283 7.0 12.2 0.00 0.00 0.00 92 1008.0
20260905014242 63 290 5.2 12.2 0.00 0.00 0.00 92 1007.7
20260905013742 63 259 6.1 13.0 0.00 0.00 0.00 92 1007.7
20260905013242 63 259 8.7 15.6 0.00 0.00 0.00 92 1007.9
20260905012742 63 281 7.0 12.2 0.00 0.00 0.00 92 1007.7
20260905012242 63 216 6.1 15.6 0.00 0.00 0.00 92 1007.8
20260905011742 63 275 7.8 13.9 0.00 0.00 0.00 92 1007.7
20260905011242 63 292 9.6 13.9 0.00 0.00 0.00 92 1007.8
20260905010742 63 229 13.0 16.5 0.00 0.00 0.00 92 1007.7
20260905010242 64 279 3.5 12.2 0.00 0.00 0.00 92 1007.6
20260905005742 64 273 5.2 12.2 0.00 0.00 0.00 93 1007.5
20260905005242 64 282 7.0 13.0 0.00 0.00 0.00 93 1007.3
20260905004742 64 266 2.6 13.0 0.00 0.00 0.00 93 1007.2
20260905004242 64 284 7.0 18.2 0.00 0.00 0.00 93 1007.1
20260905003742 64 280 7.0 14.8 0.00 0.00 0.00 93 1007.2
20260905003242 64 291 9.6 18.2 0.00 0.00 0.00 94 1007.0
20260905002742 64 149 5.2 15.6 0.00 0.00 0.00 94 1006.9
20260905002242 64 300 5.2 18.2 0.00 0.00 0.00 94 1006.8
20260905001742 64 263 4.3 15.6 0.00 0.00 0.00 95 1006.7
20260905001242 64 310 6.1 11.3 0.00 0.00 0.00 95 1006.8
20260905000742 64 290 3.5 9.6 0.00 0.00 0.00 95 1006.8
20260905000242 64 197 7.8 16.5 0.00 0.00 0.00 95 1006.8
20260904235742 64 174 5.2 7.8 0.00 0.00 0.00 95 1006.8
20260904235242 64 276 7.8 13.9 0.00 0.00 0.00 95 1006.8
20260904234742 64 296 4.3 8.7 0.00 0.00 0.00 95 1006.7
20260904234242 64 293 6.1 9.6 0.00 0.00 0.00 95 1006.7
20260904233742 64 312 2.6 13.0 0.00 0.00 0.00 95 1006.8
20260904233242 64 273 3.5 12.2 0.00 0.00 0.00 95 1006.8
20260904232742 64 290 2.6 5.2 0.00 0.00 0.00 95 1006.8
20260904232242 64 97 2.6 8.7 0.00 0.00 0.00 95 1006.5
20260904231742 64 292 4.3 8.7 0.00 0.00 0.00 95 1006.6
20260904231242 64 285 5.2 8.7 0.00 0.00 0.00 95 1006.7
20260904230742 65 247 6.1 13.9 0.00 0.00 0.00 95 1006.4
20260904230242 65 225 5.2 11.3 0.00 0.00 0.00 95 1006.8
20260904225742 65 252 7.0 9.6 0.00 0.00 0.00 95 1006.7
20260904225242 64 294 6.1 11.3 0.00 0.00 0.00 95 1006.8
20260904224742 64 300 4.3 7.0 0.00 0.00 0.00 95 1006.7
20260904224242 64 244 0.9 6.1 0.00 0.00 0.00 95 1006.5
20260904223742 64 255 5.2 6.1 0.00 0.00 0.00 95 1006.5